[[{"header":{"parameterUnit":"m.s-1","parameterCategory":1,"la1":30.2992,"la2":30.254,"lo1":-89.0895,"lo2":-89.0443,"dy":0.0025,"dx":0.0025,"nx":19,"ny":19,"refTime":"2026-03-12T21:00:00:Z","depth":0,"parameterNumber":2,"parameterNumberName":"U-component_of_WINDS"},"data":[0,0,0,-1.1633,-1.1634,-1.1686,-1.1686,-1.1761,-1.1762,0,0,0,0,0,0,0,0,0,0,0,-1.1621,-1.1622,-1.1633,-1.1634,-1.1686,-1.1686,-1.1761,-1.1762,0,0,0,0,0,0,0,0,0,0,0,-1.1621,-1.1621,-1.1622,-1.1634,-1.1686,-1.1686,-1.1761,-1.1719,0,0,0,0,0,0,0,0,0,0,-1.1667,-1.1659,-1.1621,-1.1622,-1.1635,-1.1686,-1.1686,-1.1717,-1.1721,-1.174,0,-1.1757,0,-1.176,-1.1767,-1.1767,0,0,0,-1.1632,-1.1655,-1.1666,-1.1622,-1.1635,-1.1686,-1.1662,-1.1719,-1.1725,-1.1747,-1.1758,-1.1761,-1.1762,-1.1767,-1.1768,-1.1882,-1.1882,0,0,-1.1629,-1.1633,-1.1662,-1.167,-1.166,-1.166,-1.1663,-1.1722,-1.1735,-1.1758,-1.1762,-1.1763,-1.1768,-1.1769,-1.1881,-1.1882,0,0,0,-1.1622,-1.1631,-1.164,-1.1667,-1.1675,-1.1662,-1.1666,-1.1733,-1.1735,-1.1763,-1.1764,-1.1768,-1.1769,-1.188,-1.1881,-1.1916,0,0,0,-1.162,-1.1627,-1.1639,-1.1641,-1.1674,-1.1704,-1.1675,-1.1731,-1.1738,-1.1763,-1.1769,-1.177,-1.188,-1.1881,-1.1913,-1.1931,0,0,0,-1.1616,-1.1626,-1.1635,-1.1641,-1.1664,-1.1703,-1.1709,-1.1732,-1.1738,-1.1767,-1.177,-1.1879,-1.1881,-1.1911,-1.1928,-1.1962,0,0,0,-1.1614,-1.1665,-1.1635,-1.1694,-1.1663,-1.1724,-1.1709,-1.1754,-1.1783,-1.1769,-1.188,-1.1881,-1.191,-1.1926,-1.196,-1.1992,-1.2005,0,0,-1.1681,-1.1673,-1.1707,-1.1682,-1.1748,-1.1715,-1.1788,-1.1811,-1.1812,-1.1859,-1.1862,-1.1914,-1.1928,-1.1962,-1.208,-1.2091,0,0,0,-1.173,-1.1754,-1.1771,-1.1798,-1.1816,-1.1834,-1.1846,-1.1855,-1.1895,-1.1836,-1.1936,-1.1944,-1.1964,-1.1979,-1.1988,-1.2005,-1.1888,-1.1888,-1.1888,-1.1831,-1.1827,-1.1883,-1.1886,-1.1912,-1.1924,-1.1946,-1.196,-1.195,-1.1973,-1.1987,-1.2059,-1.2077,-1.2084,-1.2102,-1.2004,-1.2004,-1.2004,-1.2004,-1.1929,-1.1963,-1.1947,-1.1995,-1.1992,-1.2034,-1.2048,-1.2039,-1.2078,-1.2048,-1.2066,-1.2034,-1.2096,-1.2111,-1.2007,-1.2006,-1.2006,-1.2006,-1.2006,-1.1994,-1.201,-1.2019,-1.2058,-1.2088,-1.209,-1.2128,-1.2123,-1.212,-1.2137,-1.2152,-1.2151,-1.2151,-1.2145,-1.2145,-1.2145,-1.2145,-1.2145,-1.2146,-1.2059,-1.2068,-1.2099,-1.2123,-1.214,-1.2162,-1.2174,-1.2191,-1.2209,-1.2204,-1.2204,-1.2191,-1.2102,-1.208,-1.2149,-1.2149,-1.2148,-1.2148,-1.2148,-1.216,-1.2136,-1.2185,-1.2202,-1.223,-1.226,-1.2254,-1.2289,-1.2303,-1.2322,-1.2306,-1.2241,-1.2233,-1.2226,-1.2208,-1.2306,-1.2306,-1.2306,-1.2306,-1.2216,-1.2211,-1.226,-1.2287,-1.2313,-1.2312,-1.2369,-1.238,-1.2388,-1.2396,-1.2381,-1.2357,-1.2349,-1.2346,-1.2336,-1.2319,-1.2444,-1.2444,-1.2444,-1.2278,-1.2276,-1.2324,-1.2329,-1.2351,-1.237,-1.2423,-1.2456,-1.246,-1.245,-1.2403,-1.2397,-1.2357,-1.2344,-1.2332,-1.2317,-1.2285,0,0]},{"header":{"parameterUnit":"m.s-1","parameterCategory":1,"la1":30.2992,"la2":30.254,"lo1":-89.0895,"lo2":-89.0443,"dy":0.0025,"dx":0.0025,"nx":19,"ny":19,"refTime":"2026-03-12T21:00:00:Z","depth":0,"parameterNumber":3,"parameterNumberName":"V-component_of_WINDS"},"data":[0,0,0,2.4255,2.4256,2.4296,2.4296,2.4347,2.4348,0,0,0,0,0,0,0,0,0,0,0,2.4245,2.4245,2.4255,2.4256,2.4296,2.4296,2.4347,2.4348,0,0,0,0,0,0,0,0,0,0,0,2.4245,2.4245,2.4246,2.4256,2.4296,2.4296,2.4347,2.4316,0,0,0,0,0,0,0,0,0,0,2.4278,2.4271,2.4245,2.4246,2.4257,2.4296,2.4296,2.4315,2.4318,2.433,0,2.4341,0,2.4345,2.4351,2.4351,0,0,0,2.4255,2.4268,2.4277,2.4246,2.4257,2.4296,2.4277,2.4317,2.4321,2.4334,2.4342,2.4344,2.4346,2.4351,2.4352,2.4423,2.4423,0,0,2.4253,2.4253,2.4274,2.4279,2.4275,2.4276,2.4279,2.4319,2.4327,2.4342,2.4345,2.4347,2.4352,2.4352,2.4423,2.4423,0,0,0,2.4247,2.4251,2.426,2.4277,2.4285,2.4277,2.428,2.4326,2.4328,2.4346,2.4348,2.4352,2.4353,2.4422,2.4423,2.4442,0,0,0,2.4246,2.4248,2.4259,2.4259,2.4284,2.4306,2.4286,2.4325,2.433,2.4347,2.4352,2.4353,2.4422,2.4422,2.444,2.4451,0,0,0,2.4242,2.4248,2.4254,2.4259,2.4276,2.4305,2.431,2.4326,2.4331,2.4351,2.4353,2.4421,2.4422,2.4439,2.4448,2.4468,0,0,0,2.4238,2.4272,2.4255,2.4293,2.4276,2.4317,2.431,2.4341,2.436,2.4352,2.4422,2.4423,2.4439,2.4447,2.4467,2.4484,2.4491,0,0,2.4281,2.4277,2.4299,2.4285,2.4329,2.4311,2.4358,2.4376,2.4377,2.4407,2.4409,2.4441,2.4448,2.4468,2.4536,2.4542,0,0,0,2.4313,2.4329,2.4341,2.4359,2.4374,2.4386,2.4396,2.4402,2.4428,2.4393,2.4454,2.4458,2.447,2.4478,2.4483,2.4491,2.4427,2.4427,2.4427,2.4374,2.4374,2.441,2.4414,2.4432,2.4442,2.4456,2.4466,2.4461,2.4475,2.4484,2.4525,2.4534,2.4538,2.4547,2.4494,2.4494,2.4494,2.4494,2.4435,2.4457,2.4449,2.4481,2.448,2.4507,2.4517,2.4512,2.4535,2.4519,2.4529,2.451,2.4545,2.4553,2.4496,2.4495,2.4495,2.4495,2.4495,2.4474,2.4484,2.4491,2.4517,2.4536,2.4539,2.4562,2.456,2.4559,2.4569,2.4577,2.4576,2.4574,2.4573,2.4573,2.4573,2.4574,2.4574,2.4574,2.4511,2.4518,2.4537,2.4554,2.4565,2.4579,2.4588,2.4598,2.4609,2.4606,2.4606,2.4598,2.4549,2.4536,2.4576,2.4575,2.4575,2.4575,2.4575,2.457,2.4556,2.4587,2.4597,2.4616,2.4634,2.4632,2.4652,2.466,2.4671,2.4661,2.4626,2.4622,2.4618,2.4606,2.4662,2.4662,2.4662,2.4662,2.4602,2.46,2.4629,2.4646,2.4662,2.4663,2.4694,2.4701,2.4706,2.471,2.4702,2.4688,2.4684,2.4682,2.4677,2.4666,2.4736,2.4736,2.4736,2.4637,2.4637,2.4665,2.4669,2.4683,2.4694,2.4724,2.4742,2.4744,2.4739,2.4713,2.471,2.4687,2.468,2.4673,2.4665,2.4645,0,0]}]]